Location: Oak Glen
(34.0495°N, 116.9470°E)
Time: 18:35:41
(UTC-08:00)

Vanguard 1 - Pass Details

Date: 22 June 2018
Orbit: 649 x 3834 km, 34.3° (Epoch: 18 November)

Event Time Altitude Azimuth Distance (km) Brightness Sun altitude
Rises 11:46:57 0° 178° (S) 3,561 - -22.0°
Exits shadow 11:50:02 - 157° (SSE) 3,142 12.4 -21.6°
Reaches altitude 10° 11:51:19 10° 147° (SSE) 3,096 12.4 -21.5°
Maximum altitude 11:54:01 12° 126° (SE) 3,259 12.8 -21.1°
Drops below altitude 10° 11:57:12 10° 106° (ESE) 3,804 13.3 -20.7°
Sets 12:04:26 0° 80° (E) 5,663 14.8 -19.7°
